Regional Weather Roundup
Issued by NWS

Home | Current Version | Previous Version | Text Only | Print | Product List | Glossary Off
Versions: 1 2 3 4 5 6 7 8 9 10 11 12 13 14 15 16 17 18 19 20 21 22 23 24 25 26 27 28 29 30 31 32 33 34 35 36 37 38 39 40 41 42 43 44 45 46 47 48 49 50

000
ASUS43 KTOP 070408
RWRKS

WEATHER ROUNDUP FOR KANSAS
NATIONAL WEATHER SERVICE GOODLAND KS
1100 PM CDT WED MAY 06 2015

NOTE:  "FAIR" INDICATES FEW OR NO CLOUDS BELOW 12,000 FEET WITH NO
SIGNIFICANT WEATHER AND/OR OBSTRUCTIONS TO VISIBILITY.

KSZ001>006-013>018-027>032-041>047-070500-
NORTHWEST KANSAS

CITY           SKY/WX    TMP DP  RH WIND       PRES   REMARKS
GOODLAND       CLOUDY    59  48  67 W13       29.69S
HAYS           MOCLDY    66  57  72 S25G33    29.63S
HILL CITY      MOCLDY    59  56  89 N3        29.62R
RUSSELL        PTCLDY    66  60  81 S28G36    29.64R
$$

KSZ061>065-074>080-084>089-070500-
SOUTHWEST KANSAS

CITY           SKY/WX    TMP DP  RH WIND       PRES   REMARKS
DODGE CITY     PTCLDY    65  53  65 S15       29.67R
ELKHART          N/A     62  46  55 N2          N/A
GARDEN CITY    MOCLDY    63  49  60 W15G22    29.72R
GREAT BEND     CLEAR     66  57  72 S26G38    29.68R
LIBERAL        PTCLDY    64  48  55 S14       29.71R
PRATT          MOCLDY    64  57  77 SE21G29   29.75R
$$

KSZ066>073-081>083-090>101-070500-
SOUTHEAST KANSAS

CITY           SKY/WX    TMP DP  RH WIND       PRES   REMARKS
CHANUTE        CLOUDY    70  57  63 SE15G23   29.84S
COFFEYVILLE    CLOUDY    70  57  63 SE15G22   29.83F
HUTCHINSON     CLOUDY    67  58  72 SE24G35   29.74R
MEDICINE LODGE   N/A     63  57  81 S13G23    29.76R
NEWTON         CLOUDY    68  59  73 S20G35    29.80R
PARSONS        CLOUDY    70  58  65 S7G17     29.85F
WICHITA INTL   TSTM      68  64  87 S10       29.82R
WICHITA JABRA  TSTM      67  65  93 E17       29.79F
WICHITA MCCONL TSTM      67  65  91 E10       29.79F
WINFIELD       TSTM      69  66  90 E12       29.83R
$$

KSZ007>012-019>026-033>040-048>060-102>105-070500-
NORTHEAST KANSAS

CITY           SKY/WX    TMP DP  RH WIND       PRES   REMARKS
CONCORDIA      CLOUDY    68  64  87 S28G39    29.65S
EMPORIA        CLOUDY    69  58  67 S24G39    29.81R
LAWRENCE       PTCLDY    70  56  61 SE14      29.84S
MANHATTAN      MOCLDY    71  62  73 S23G36    29.73S
MARYSVILLE     CLOUDY    68  61  77 S28G39    29.70R
OLATHE IND     PTCLDY    69  58  67 SE20G28   29.87S
OLATHE EXE     PTCLDY    69  57  65 S15       29.87S
SALINA         MOCLDY    70  62  76 S23G37    29.70R
TOPEKA BILLARD PTCLDY    71  57  61 SE20G29   29.81S
TOPEKA FORBES  PTCLDY    71  57  61 SE21G31   29.80S
$$



USA.gov is the U.S. government's official web portal to all federal, state and local government web resources and services.